Velovelo
Português Nederlands 日本語 中文
Español English čeština slovenčina
русский italiano polski norsk
français Deutsch svenska عربي
 
 página anterior
 Enviar a amigos
 Para imprimir
 ---> L’Ollioulaise 2009 : Résultats du 92 km

ClassDos....NomPrénomCat....Temps....
1 84 VERINI Raphael A 2:16:22
2 126 PIGAGLIO Kevin A 2:16:22
3 137 CESARI Jean Louis C 2:17:16
4 18 LENTIN Gregory A 2:17:23
5 147 BERTHOU Eric A 2:17:33
6 10 ROTA Herve B 2:21:51
7 35 DOUTRE Frederic B 2:21:52
8 122 MARTINEZ Jeremy A 2:22:37
9 21 GASTALDI Maxime A 2:22:38
10 2 CALIENNO Jean Marc C 2:22:41
11 16 GERNEZ Amaury A 2:22:44
12 73 FIORENTINO Patrick C 2:22:47
13 32 MERLE Vincent B 2:22:47
14 6 LAINE Christophe C 2:22:47
15 12 TOUSSAINT Sebastien A 2:23:07
16 11 D’ANGIO Gerard C 2:23:11
17 37 SANI Daniel C 2:23:23
18 65 FATTORE Raymond D 2:28:24
19 145 NIN Gerard E 2:28:24
20 4 GALIA Christian C 2:28:24
21 23 AMAR Nicolas B 2:28:24
22 94 GRAZIANO Bernard C 2:28:24
23 63 BEAUMOND Philippe D 2:28:24
24 5 GONCALVES Eurico B 2:28:24
25 151 LANC Paul C 2:28:24
26 47 AMBROSINI Jean Christophe C 2:28:24
27 17 SINTES Damien A 2:28:24
28 86 SARNIN Christophe C 2:28:24
29 51 CASTELLAN Bernard C 2:28:24
30 33 LODICO Stephane B 2:28:24
31 105 GUILLOUF Patrick D 2:28:24
32 24 VERMOREL Nicolas B 2:28:50
33 27 RABUSSIER Olivier B 2:28:58
34 142 CARME Serge C 2:29:05
35 163 VASSEUR Jeremy A 2:29:37
36 14 VALENTIN Jonathan A 2:31:23
37 19 LE GOFF Nicolas A 2:31:25
38 129 LOPEZ Gregory A 2:31:27
39 53 ANDREOTTI Patrick C 2:31:42
40 91 DIAZ Carles B 2:31:42
41 139 SACRDINA Joseph D 2:31:42
42 120 MANTOVANI David B 2:31:42
43 119 LAGRIPPE Lois B 2:31:42
44 98 DUMONT Laurent C 2:31:42
45 29 CHARTOIRE Roch B 2:31:42
46 28 DESCHAMPS Eric B 2:31:42
47 85 COTTEREAU Michel D 2:31:42
48 43 PINATEL Philippe C 2:31:42
49 40 GALLO Christian C 2:31:42
50 143 CARME Jerome B 2:31:44
51 42 VALENTIN Didier C 2:31:44
52 101 LABRUGERE Philippe C 2:31:49
53 83 ZININO Christian D 2:31:54
54 49 VAILLANT Philippe C 2:32:07
55 26 CHIABOTTO Didier B 2:32:15
56 155 LAFRANCHISE Didier D 2:33:14
57 61 MAILLIET Paul D 2:33:16
58 36 MENETRIER Joel C 2:33:58
59 116 BOURGOIS Laurent B 2:34:46
60 146 FOURNIER Eric D 2:37:10
61 38 SIANO Daniel C 2:37:20
62 88 RIVALAN Yoan B 2:39:43
63 52 BONFILS Francois C 2:39:43
64 46 LE GOFF Ludovic C 2:39:43
65 127 LEONCE Dominique D 2:39:43
66 154 ZANNETTACCI Bruno C 2:39:43
67 54 BILLO Gerard C 2:39:43
68 156 MANTO Patrick C 2:40:00
69 55 VALDENAIRE Guillaume C 2:40:00
70 56 ALLIONE Denis C 2:40:00
71 205 GROSBOIS Sylvain A 2:40:00
72 64 CORTI Edmond D 2:40:00
73 148 GEORGES Lilion A 2:40:00
74 25 TECZA Credric B 2:40:30
75 131 BOULAGNON Denis B 2:41:13
76 160 BLANC Michel C 2:41:35
77 76 BERTET Alain E 2:41:35
78 1 AGNEL Stephane C 2:41:35
79 97 LENEL Christophe C 2:41:35
80 164 CHOW-CHINE Laurent B 2:41:40
81 115 MAILLET Patrick E 2:41:40
82 136 VINDIOLLET Franck B 2:41:40
83 128 GARCIA Jean Francois E 2:41:40
84 138 GIORGI Sylvain D 2:41:40
85 39 VINH MAU C 2:41:40
86 132 SAUZE Jonathan A 2:41:40
87 30 THOMAS Bertrand B 2:41:40
88 140 CONIO Jean E 2:41:40
89 108 KEIERSSE Lionel D 2:41:40
90 157 ROLLAND Jean Luc B 2:42:15
91 79 ARTUFEL Georges E 2:44:23
92 3 CARNIEL Jean Marie C 2:44:42
93 13 MOLLA Julien A 2:45:47
94 90 DELANOE Bruno B 2:47:15
95 31 LUPPI Sebastien B 2:48:32
96 95 TCHILINGUIRIANRemy VTT B 2:48:36
97 159 BONNIFAIT Christophe B 2:48:42
98 107 VIAL Jean Frederic C 2:48:42
99 158 GROMAIRE Philippe B 2:48:42
100 124 MAREGGIO Bernard D 2:48:53
101 96 HASLE Eric C 2:58:57
102 82 RENARD Philippe C 2:48:57
103 70 ROUPSARD David D 2:49:21
104 41 CARMOUZE Philippe C 2:50:39
105 118 ASENCIO Françis D 2:50:39
106 150 DIGARD David B 2:51:19
107 69 BLANC Patrick D 2:52:36
108 153 CASTELLAN Baptiste B 2:52:53
109 102 MACIA Franck B 2:53:18
110 89 RICHARD Thierry C 2:54:11
111 162 DEVERCI Michel D 2:54:31
112 114 POLETTO Jean Pierre E 2:55:34
113 22 LAUTARD Olivier B 2:55:34
114 204 VIOLLETTE Pascal D 2:55:55
115 100 JOUVE Marc C 2:55:57
116 58 MOLLA Claude D 2:56:24
117 80 DOLFI Robert E 2:58:27
118 34 GALAS Jean Marc B 2:58:39
119 77 ROSHARDT Pascal E 2:58:39
120 141 DERUFFE Alain E 2:59:27
121 74 BERNARD Daniel E 2:59:55
122 15 WALBROU Jonathan A 3:00:22
123 59 DUALE Roland D 3:01:37
124 48 VIAN Jean Marc C 3:02:16
125 152 ANDREANI Pierre C 3:02:19
126 117 BALLESTERO Didier B 3:02:19
127 149 INGARGIOLA Olivier B 3:03:23
128 81 MONTOVANI Bernard E 3:03:23
129 62 SALINE Luc D 3:02:58
130 8 MELANI Celine H 3:09:41
131 106 MUZZUPAPA Daniel B 3:09:41
132 75 PUYO Gerard E 3:11:16
133 203 AOUST Alain E 3:11:44
134 93 OTTENVALDER Alain D 3:14:59
135 111 MARINI Vincent D 3:15:02
136 66 ROLLOT Serge D 3:15:18
137 71 PALACCIO Daniel D 3:15:53
138 87 GALTIERI Marcel D 3:15:53
139 110 AOUSTIN Jacky C 3:20:34
140 92 PERRENOUD Benedicte H 3:20:46
141 72 DONATO Olivier D 3:21:57
142 121 LE MOIGNE François C 3:24:22
143 144 CHANGEUR Christophe B 3:27:40
144 99 COZZONE Michel C 3:31:14
145 68 LUCHETTI Jacques D 3:31:50
146 200 WALSH David D 3:34:52
147 135 MULET Greta I 3:38:30
148 67 TRESSENS Dominique D 3:38:30

Haut 









Haut  
 Área privada   Direitos de autor-Copyright: Clique aqui para ler !